FENGYUN 1C DEB

Satellite information

Favourite Embed

Satellite Type and Status

DEBRISIN ORBIT

Key statistics

Satellite FENGYUN 1C DEB at a glance.

Uptime

9498

Days in orbit

Revolutions

≈ 14.1

Per day

Orbit

SSO

Sun Synchronous Orbit

Inclination

99.1

Latest

Satellite identification and parameters

Extended collection of information and parameters for FENGYUN 1C DEB.

Object identification

Identified? True

Debris? True

Object name: FENGYUN 1C DEB

International designator: 1999-025EKH

Object number (NORAD): 37589

Object ID (CCSDS): 37589

Country: PEOPLES REPUBLIC OF CHINA (PRC)

Current information (Y/N): Y

RCS size: SMALL

Orbital parameters

Period: 102.44 minutes

Inclination: 99.0776 deg

SMA: 7252.263 km

Apoapsis: 960.98 km

Periapsis: 787.277 km

RAAN: 29.3977 deg

Eccentricy: 0.0119758

Argument of periapsis: 152.0707 deg

Mean anomaly: 208.6957 deg

Mean motion: 14.05699235 rev/day

Mean motion (dot): 0.00005505 rev/day2

B* drag term: 0.0031888 1/REarth

Two-line elements (TLE)

Creation date: May 8, 2025, 3:01 a.m.

Reference frame: TEME

Reference center: EARTH

Epoch: May 7, 2025, 12:22 p.m. UTC

TLE line 0: 0 FENGYUN 1C DEB

TLE line 1: 1 37589U 99025EKH 25127.51546384 .00005505 00000-0 31888-2 0 9995

TLE line 2: 2 37589 99.0776 29.3977 0119758 152.0707 208.6957 14.05699235795026

Live tracking on map

Real-time ground track for satellite FENGYUN 1C DEB.

In-orbit conjunctions

A list of the most updated potential collisions computed for object FENGYUN 1C DEB.

Target Orbit TCA Probability of collision Miss distance Type
CZ-6A DEB LEO 2024-11-19 13:10:43 0.0001296294 443.0 (m) DEBRIS
FENGYUN 1C DEB SSO 2024-11-15 03:28:41 0.0004937482 739.0 (m) DEBRIS
SL-16 DEB LEO 2024-11-13 13:27:20 0.0001005703 730.0 (m) DEBRIS
SL-8 R/B LEO 2024-09-25 17:03:59 0.0001998439 193.0 (m) ROCKET BODY

Associated space launch

Chinese polar orbiting meteorological satellite

FENGYUN 1C DEB was lifted into orbit during the mission ‘Long March 4B | Feng Yun 1C’, on board a Long March 4B space rocket.

The launch took place on May 10, 1999, 1:33 a.m. from Launch Complex 7.

For more information about the launch, click the button.

Launch to space Long March 4B | Feng Yun 1C
Long March 4B | Feng Yun 1C

Agency: N/A

Status: Launch Successful

Launch date: May 10, 1999, 1:33 a.m. UTC

Rocket: Long March 4B

Launch pad: Launch Complex 7

Location: Taiyuan Satellite Launch Center, People's Republic of China

...

Latest news about this satellite

There are no fresh news available about this satellite. Check back as we update our databases every day.


Newsletter sign-up

Weekly statistics, charts and insights to help you stay on top of the space industry.